Location: Newark
(34.0131°N, 4.3314°W)
Time: 11:43:09
(UTC+00:00)

Explorer 11/Cluster Stage 4 - Pass Details

Date: 01 November 2019
Orbit: 467 x 1259 km, 28.8° (Epoch: 14 November)

Event Time Altitude Azimuth Distance (km) Brightness Sun altitude
Rises 06:27:05 0° 264° (W) 3,452 - -2.7°
Exits shadow 06:27:15 - 263° (W) 3,392 9.2 -2.7°
Reaches altitude 10° 06:30:01 10° 258° (WSW) 2,369 8.5 -2.1°
Maximum altitude 06:35:14 45° 187° (S) 926 7.1 -1.1°
Drops below altitude 10° 06:39:28 10° 115° (ESE) 1,912 10.7 -0.2°
Sets 06:41:37 0° 108° (ESE) 2,719 14.8 0.2°
